Location: Norton
(51.3000°N, 0.8167°E)
Time: 12:08:40
(UTC+00:00)

Cosmos 1378 - Pass Details

Date: 03 March 2021
Orbit: 489 x 501 km, 82.5° (Epoch: 10 April)

Event Time Altitude Azimuth Distance (km) Brightness Sun altitude
Rises 19:58:40 0° 348° (NNW) 2,606 7.2 -22.1°
Reaches altitude 10° 20:00:48 10° 348° (NNW) 1,715 6.2 -22.4°
Enters shadow 20:04:10 70° 333° (NNW) 535 3.3 -22.9°
